Weather History for Burns, OR

Change the Weather History Date:

Thursday, January 1, 2009

  Actual Average Record
Temperature  
Mean Temperature 35 °F 24 °F  
Max Temperature 43 °F 34 °F 53 °F (1997)
Min Temperature 27 °F 14 °F -23 °F (2011)
Degree Days  
Heating Degree Days 30 41  
Month to date heating degree days 30 41  
Since 1 July heating degree days 3084 3308  
Cooling Degree Days 0 0  
Month to date cooling degree days 0 0  
Year to date cooling degree days 0 0  
Moisture  
Dew Point 30 °F    
Average Humidity 84    
Maximum Humidity 100    
Minimum Humidity 67    
Precipitation  
Precipitation 0.02 in 0.05 in 0.73 in (1997)
Month to date precipitation 0.02 0.05  
Year to date precipitation 0.02 0.05  
Sea Level Pressure  
Sea Level Pressure 29.86 in    
Wind  
Wind Speed 9 mph (South)    
Max Wind Speed 26 mph    
Max Gust Speed 31 mph    
Visibility 9 miles    
Events Snow    
T = Trace of Precipitation, MM = Missing Value Source: NWS Daily Summary

Daily Weather History Graph

Daily Weather History Graph

Search for Another Location

Airport:

Trip Planner

Search our weather history database for the weather conditions in past years. The results will help you decide how hot, cold, wet, or windy it might be!

Date:

Astronomy

Jan. 01, 2009 Rise Set
Actual Time 7:29 AM PST 4:30 PM PST
Civil Twilight 6:56 AM PST 5:02 PM PST
Nautical Twilight 6:20 AM PST 5:38 PM PST
Astronomical Twilight 5:45 AM PST 6:13 PM PST
Moon 10:10 AM PST (1/1) 9:56 PM PST (1/1)
Length of Visible Light 10h 06m
Length of Day
9h 00m
Waxing Crescent, 24% of the Moon is Illuminated
Jan 1
Waxing Crescent
Jan 4
First Quarter
Jan 10
Full
Jan 17
Last Quarter
Jan 25
New

Hourly Weather History & Observations

Time (PST) Temp. Windchill Dew Point Humidity Pressure Visibility Wind Dir Wind Speed Gust Speed Precip Events Conditions
12:53 AM 27.0 °F 23.0 °F 24.1 °F 89% 30.05 in 10.0 mi NNE 3.5 mph - N/A   Overcast
1:53 AM 28.0 °F 24.2 °F 24.1 °F 85% 30.04 in 10.0 mi NE 3.5 mph - N/A   Overcast
2:37 AM 28.4 °F 24.6 °F 24.8 °F 86% 29.98 in 5.0 mi South 3.5 mph - 0.00 in Snow Light Snow
2:53 AM 28.9 °F - 25.0 °F 85% 30.01 in 5.0 mi Calm Calm - 0.00 in Snow Light Snow
3:06 AM 28.4 °F 23.3 °F 26.6 °F 93% 29.96 in 9.0 mi North 4.6 mph - 0.00 in   Overcast
3:53 AM 28.9 °F 23.9 °F 27.0 °F 92% 29.97 in 10.0 mi ENE 4.6 mph - 0.00 in   Overcast
4:26 AM 28.4 °F - 26.6 °F 93% 29.92 in 3.0 mi Calm Calm - 0.00 in Snow Light Snow
4:33 AM 28.4 °F - 26.6 °F 93% 29.91 in 2.0 mi Calm Calm - 0.01 in Snow Light Snow
4:53 AM 28.9 °F - 27.0 °F 92% 29.94 in 3.0 mi Calm Calm - 0.01 in Snow Light Snow
5:05 AM 28.4 °F - 26.6 °F 93% 29.90 in 4.0 mi Calm Calm - 0.00 in Snow Light Snow
5:53 AM 28.9 °F 25.2 °F 28.0 °F 96% 29.93 in 10.0 mi ENE 3.5 mph - 0.01 in   Overcast
6:53 AM 30.0 °F - 28.9 °F 96% 29.92 in 10.0 mi Calm Calm - N/A   Overcast
7:53 AM 28.0 °F - 28.0 °F 100% 29.91 in 10.0 mi Calm Calm - N/A   Mostly Cloudy
8:53 AM 33.1 °F 23.9 °F 28.9 °F 85% 29.91 in 10.0 mi SSW 12.7 mph - N/A   Clear
9:11 AM 35.6 °F 25.9 °F 30.2 °F 81% 29.84 in 10.0 mi SSW 16.1 mph - N/A   Clear
9:53 AM 37.9 °F 27.6 °F 32.0 °F 79% 29.91 in 10.0 mi South 20.7 mph - N/A   Mostly Cloudy
10:53 AM 41.0 °F 31.1 °F 33.1 °F 73% 29.88 in 10.0 mi SSW 23.0 mph - N/A   Partly Cloudy
11:53 AM 39.9 °F 31.4 °F 33.1 °F 77% 29.86 in 10.0 mi SSW 16.1 mph - N/A   Overcast
12:53 PM 39.9 °F 32.1 °F 33.1 °F 77% 29.83 in 10.0 mi SSW 13.8 mph - N/A   Scattered Clouds
1:53 PM 41.0 °F 31.9 °F 34.0 °F 76% 29.80 in 10.0 mi South 19.6 mph - N/A   Mostly Cloudy
2:53 PM 43.0 °F 37.2 °F 34.0 °F 71% 29.79 in 10.0 mi SW 10.4 mph - N/A   Mostly Cloudy
3:53 PM 43.0 °F 35.7 °F 34.0 °F 71% 29.80 in 10.0 mi SSW 15.0 mph - N/A   Overcast
4:53 PM 43.0 °F 36.4 °F 32.0 °F 65% 29.80 in 10.0 mi South 12.7 mph - N/A   Overcast
5:53 PM 39.0 °F 32.3 °F 33.1 °F 79% 29.81 in 10.0 mi SSE 10.4 mph - N/A   Overcast
6:53 PM 39.9 °F 35.1 °F 32.0 °F 73% 29.78 in 10.0 mi SSE 6.9 mph - N/A   Overcast
7:53 PM 37.9 °F 31.5 °F 32.0 °F 79% 29.76 in 10.0 mi South 9.2 mph - N/A   Overcast
8:53 PM 37.9 °F 31.5 °F 32.0 °F 79% 29.72 in 10.0 mi South 9.2 mph - N/A   Overcast
9:53 PM 37.9 °F 32.7 °F 32.0 °F 79% 29.68 in 10.0 mi SSE 6.9 mph - N/A   Partly Cloudy
10:53 PM 37.9 °F 28.2 °F 32.0 °F 79% 29.66 in 10.0 mi South 18.4 mph - N/A   Clear
11:53 PM 37.0 °F 31.6 °F 32.0 °F 82% 29.65 in 10.0 mi SSW 6.9 mph - N/A   Mostly Cloudy